Weather History for KGSH - October, 2013

Change the Weather History Date:

Monday, October 7, 2013

  Actual Average Record
Temperature  
Mean Temperature 52 °F -  
Max Temperature 61 °F 63 °F 87 °F (1963)
Min Temperature 42 °F 43 °F 28 °F (1964)
Degree Days  
Heating Degree Days 14    
Growing Degree Days 2 (Base 50)    
Moisture  
Dew Point 43 °F    
Average Humidity 78    
Maximum Humidity 93    
Minimum Humidity 52    
Precipitation  
Precipitation 0.00 in - - ()
Sea Level Pressure  
Sea Level Pressure 29.93 in    
Wind  
Wind Speed 10 mph (WSW)    
Max Wind Speed 18 mph    
Max Gust Speed 26 mph    
Visibility 10 miles    
Events      
Averages and records for this station are not official NWS values.
T = Trace of Precipitation, MM = Missing Value Source: NWS Daily Summary

Daily Weather History Graph

Daily Weather History Graph

Search for Another Location

Airport or City:

Trip Planner

Search our weather history database for the weather conditions in past years. The results will help you decide how hot, cold, wet, or windy it might be!

Date:

Astronomy

Oct. 07, 2013 Rise Set
Actual Time 7:46 AM EDT 7:14 PM EDT
Civil Twilight 7:18 AM EDT 7:42 PM EDT
Nautical Twilight 6:46 AM EDT 8:14 PM EDT
Astronomical Twilight 6:14 AM EDT 8:46 PM EDT
Moon 10:38 AM EDT (10/7) 8:56 PM EDT (10/7)
Length of Visible Light 12h 23m
Length of Day
11h 27m
Waxing Crescent, 8% of the Moon is Illuminated
Oct 7
Waxing Crescent
Oct 11
First Quarter
Oct 18
Full
Oct 26
Last Quarter
Nov 3
New

Hourly Weather History & Observations

Time (EDT) Temp. Windchill Dew Point Humidity Pressure Visibility Wind Dir Wind Speed Gust Speed Precip Events Conditions
12:53 AM 46.9 °F - 39.9 °F 77% 29.78 in 10.0 mi SW 8.1 mph - N/A   Clear
1:53 AM 44.1 °F 40.1 °F 39.9 °F 85% 29.78 in 10.0 mi SW 6.9 mph - N/A   Clear
2:53 AM 44.1 °F 40.1 °F 39.0 °F 82% 29.79 in 10.0 mi SSW 6.9 mph - N/A   Clear
3:53 AM 42.1 °F 39.2 °F 39.0 °F 89% 29.78 in 10.0 mi SW 4.6 mph - N/A   Clear
5:53 AM 46.0 °F 41.4 °F 42.1 °F 86% 29.79 in 10.0 mi SW 9.2 mph - N/A   Overcast
6:51 AM 46.4 °F 42.4 °F 42.8 °F 87% 29.81 in 10.0 mi SW 8.1 mph - N/A   Mostly Cloudy
6:53 AM 46.0 °F 41.9 °F 43.0 °F 89% 29.81 in 10.0 mi SW 8.1 mph - N/A   Mostly Cloudy
7:22 AM 44.6 °F 39.2 °F 42.8 °F 93% 29.82 in 10.0 mi WSW 10.4 mph - N/A   Scattered Clouds
7:53 AM 45.0 °F 38.9 °F 41.0 °F 86% 29.83 in 10.0 mi WSW 12.7 mph - N/A   Partly Cloudy
8:53 AM 46.9 °F - 42.1 °F 83% 29.84 in 10.0 mi WSW 13.8 mph - N/A   Overcast
9:53 AM 50.0 °F - 43.0 °F 77% 29.87 in 10.0 mi West 15.0 mph 20.7 mph N/A   Scattered Clouds
10:53 AM 52.0 °F - 42.1 °F 69% 29.89 in 10.0 mi WSW 18.4 mph 26.5 mph N/A   Clear
11:53 AM 55.9 °F - 45.0 °F 67% 29.91 in 10.0 mi WSW 15.0 mph - N/A   Scattered Clouds
12:01 PM 55.4 °F - 44.6 °F 67% 29.90 in 10.0 mi WSW 18.4 mph 25.3 mph N/A   Mostly Cloudy
12:53 PM 53.1 °F - 45.0 °F 74% 29.94 in 10.0 mi West 17.3 mph - N/A   Overcast
1:29 PM 51.8 °F - 46.4 °F 82% 29.95 in 10.0 mi West 18.4 mph 25.3 mph N/A   Overcast
1:53 PM 52.0 °F - 46.9 °F 83% 29.96 in 9.0 mi West 16.1 mph - N/A   Overcast
2:31 PM 55.4 °F - 48.2 °F 77% 29.95 in 10.0 mi WSW 18.4 mph - N/A   Mostly Cloudy
2:53 PM 57.0 °F - 48.0 °F 72% 29.96 in 10.0 mi West 18.4 mph 25.3 mph N/A   Mostly Cloudy
3:03 PM 57.2 °F - 46.4 °F 67% 29.96 in 10.0 mi West 16.1 mph - N/A   Scattered Clouds
3:53 PM 60.1 °F - 46.9 °F 62% 29.97 in 10.0 mi West 16.1 mph 23.0 mph N/A   Mostly Cloudy
4:53 PM 61.0 °F - 43.0 °F 52% 29.99 in 10.0 mi NW 13.8 mph - N/A   Scattered Clouds
5:53 PM 60.1 °F - 44.1 °F 55% 30.01 in 10.0 mi NW 12.7 mph 18.4 mph N/A   Clear
6:53 PM 57.0 °F - 43.0 °F 59% 30.03 in 10.0 mi WNW 9.2 mph - N/A   Clear
7:53 PM 52.0 °F - 44.1 °F 74% 30.06 in 10.0 mi Calm Calm - N/A   Clear
8:53 PM 46.9 °F - 43.0 °F 86% 30.08 in 10.0 mi Calm Calm - N/A   Clear
9:53 PM 46.0 °F - 43.0 °F 89% 30.11 in 10.0 mi Calm Calm - N/A   Clear
10:53 PM 45.0 °F - 42.1 °F 90% 30.12 in 10.0 mi Calm Calm - N/A   Clear
11:53 PM 46.0 °F 44.8 °F 43.0 °F 89% 30.14 in 10.0 mi SSE 3.5 mph - N/A   Clear